Location: Franzen
(48.6167°N, 15.3833°E)
Time: 07:30:50
(UTC+00:00)

Cosmos 1417 Rocket - Visible Passes

Search period start: 04 August 2021 00:00
Search period end: 14 August 2021 00:00
Orbit: 952 x 998 km, 83.0° (Epoch: 03 August)

Date Brightness Start Highest point End Pass type
(mag) Time Alt. Az. Time Alt. Az. Time Alt. Az.
04 Aug 5.0 19:28:51 10° N 19:34:53 45° ENE 19:40:25 12° SE visible
04 Aug 5.8 21:14:32 10° NNW 21:20:06 34° W 21:25:04 12° SW visible
05 Aug 4.5 19:54:02 10° N 20:00:22 76° E 20:05:47 14° SSE visible
05 Aug 6.5 21:40:37 10° NW 21:45:00 20° W 21:49:21 10° SW visible
06 Aug 4.8 20:19:25 10° NNW 20:25:39 66° W 20:31:11 13° S visible
06 Aug 7.0 22:07:55 10° WNW 22:09:44 11° WNW 22:11:32 10° W visible
07 Aug 5.1 18:59:31 10° N 19:05:24 40° ENE 19:11:11 10° SE visible
07 Aug 5.6 20:45:01 10° NNW 20:50:46 39° W 20:56:27 10° SSW visible
08 Aug 4.6 19:24:39 10° N 19:30:56 66° ENE 19:37:05 10° SSE visible
08 Aug 6.4 21:10:57 10° NNW 21:15:44 23° W 21:20:26 10° SW visible
09 Aug 4.7 19:50:00 10° NNW 19:56:16 76° W 20:02:26 10° S visible
09 Aug 6.9 21:37:42 10° NW 21:40:30 13° WNW 21:43:18 10° WSW visible
10 Aug 5.5 20:15:31 10° NNW 20:21:26 45° W 20:27:15 10° SSW visible
11 Aug 4.7 18:55:18 10° N 19:01:29 57° ENE 19:07:33 10° SSE visible
11 Aug 6.3 20:41:21 10° NNW 20:46:26 27° W 20:51:27 10° SW visible
12 Aug 4.6 19:20:34 10° N 19:26:52 87° W 19:33:03 10° S visible
12 Aug 6.9 21:07:46 10° NW 21:11:16 16° WNW 21:14:44 10° WSW visible
13 Aug 5.3 19:46:03 10° NNW 19:52:05 52° W 19:58:01 10° SSW visible
